Location: Northcutt
(34.7304°N, 84.4305°W)
Time: 10:35:24
(UTC+00:00)

A-11 Canister half - Pass Details

Date: 03 October 2022
Orbit: 1524 x 1685 km, 47.3° (Epoch: 30 November)

Event Time Altitude Azimuth Distance (km) Brightness Sun altitude
Rises 19:02:50 0° 211° (SSW) 4,683 12.3 45.0°
Reaches altitude 10° 19:05:59 10° 206° (SSW) 3,691 12.0 44.6°
Maximum altitude 19:14:49 51° 134° (SE) 1,852 10.1 43.5°
Drops below altitude 10° 19:23:41 10° 62° (ENE) 3,706 10.7 42.3°
Sets 19:26:51 0° 58° (ENE) 4,703 11.1 41.9°
